Weather History for KSAN - June, 2013

Change the Weather History Date:

Friday, June 28, 2013

  Actual Average Record
Temperature  
Mean Temperature 73 °F 68 °F  
Max Temperature 78 °F 73 °F 95 °F (1980)
Min Temperature 67 °F 63 °F 56 °F (1950)
Degree Days  
Heating Degree Days 0 0  
Month to date heating degree days 15 15  
Since 1 June heating degree days 15 15  
Since 1 July heating degree days 1103 1222  
Cooling Degree Days 8 3  
Month to date cooling degree days 56 51  
Year to date cooling degree days 110 100  
Since 1 June cooling degree days 56 51  
Growing Degree Days 22 (Base 50)    
Moisture  
Dew Point 63 °F    
Average Humidity 71    
Maximum Humidity 87    
Minimum Humidity 54    
Precipitation  
Precipitation 0.00 in 0.00 in 0.06 in (1925)
Month to date precipitation 0.00 0.07  
Year to date precipitation 3.33 7.03  
Since 1 July precipitation 6.50  
Snow  
Snow 0.00 in - - ()
Month to date snowfall 0.0  
Year to date snowfall 0.0  
Since 1 June snowfall  
Since 1 July snowfall 0.0  
Snow Depth 0.00 in    
Sea Level Pressure  
Sea Level Pressure 29.95 in    
Wind  
Wind Speed 5 mph (NW)    
Max Wind Speed 10 mph    
Max Gust Speed 14 mph    
Visibility 8 miles    
Events      
T = Trace of Precipitation, MM = Missing Value Source: NWS Daily Summary

Daily Weather History Graph

Daily Weather History Graph

Search for Another Location

Airport or City:

Trip Planner

Search our weather history database for the weather conditions in past years. The results will help you decide how hot, cold, wet, or windy it might be!

Date:

Astronomy

Jun. 28, 2013 Rise Set
Actual Time 5:43 AM PDT 8:00 PM PDT
Civil Twilight 5:14 AM PDT 8:29 PM PDT
Nautical Twilight 4:39 AM PDT 9:04 PM PDT
Astronomical Twilight 4:01 AM PDT 9:42 PM PDT
Moon 11:54 PM PDT (6/28) 11:35 AM PDT (6/28)
Length of Visible Light 15h 14m
Length of Day
14h 17m
Waning Gibbous, 65% of the Moon is Illuminated
Jun 28
Waning Gibbous
Jun 29
Last Quarter
Jul 8
New
Jul 15
First Quarter
Jul 22
Full

Hourly Weather History & Observations

Time (PDT) Temp. Dew Point Humidity Pressure Visibility Wind Dir Wind Speed Gust Speed Precip Events Conditions
12:51 AM 68.0 °F 62.1 °F 81% 30.01 in 10.0 mi Variable 3.5 mph - N/A   Overcast
1:44 AM 68.0 °F 62.6 °F 83% 30.00 in 10.0 mi Calm Calm - N/A   Mostly Cloudy
1:51 AM 68.0 °F 62.1 °F 81% 29.99 in 10.0 mi WNW 3.5 mph - N/A   Overcast
2:42 AM 66.2 °F 62.6 °F 88% 29.98 in 7.0 mi NW 3.5 mph - N/A   Overcast
2:51 AM 66.9 °F 63.0 °F 87% 29.98 in 5.0 mi Calm Calm - N/A   Overcast
3:51 AM 66.9 °F 62.1 °F 84% 29.97 in 5.0 mi Calm Calm - N/A   Overcast
4:51 AM 66.9 °F 62.1 °F 84% 29.97 in 5.0 mi Calm Calm - N/A   Overcast
5:49 AM 66.2 °F 62.6 °F 88% 29.97 in 4.0 mi Calm Calm - N/A   Mostly Cloudy
5:51 AM 66.9 °F 62.1 °F 84% 29.97 in 4.0 mi Calm Calm - N/A   Mostly Cloudy
6:46 AM 68.0 °F 62.6 °F 83% 29.98 in 6.0 mi Variable 4.6 mph - N/A   Mostly Cloudy
6:51 AM 68.0 °F 63.0 °F 84% 29.98 in 5.0 mi NNW 5.8 mph - N/A   Mostly Cloudy
7:51 AM 68.0 °F 62.1 °F 81% 29.99 in 5.0 mi NNW 5.8 mph - N/A   Mostly Cloudy
7:56 AM 68.0 °F 62.6 °F 83% 29.99 in 5.0 mi NW 3.5 mph - N/A   Mostly Cloudy
8:51 AM 69.1 °F 63.0 °F 81% 29.99 in 5.0 mi West 5.8 mph - N/A   Haze
9:51 AM 73.0 °F 63.0 °F 71% 29.99 in 9.0 mi NNW 5.8 mph - N/A   Scattered Clouds
10:51 AM 75.0 °F 63.0 °F 66% 29.98 in 10.0 mi Variable 5.8 mph - N/A   Scattered Clouds
11:51 AM 75.0 °F 63.0 °F 66% 29.97 in 10.0 mi NNW 8.1 mph - N/A   Scattered Clouds
12:51 PM 77.0 °F 63.0 °F 62% 29.96 in 10.0 mi West 9.2 mph - N/A   Partly Cloudy
1:51 PM 75.9 °F 62.1 °F 62% 29.95 in 10.0 mi NW 5.8 mph - N/A   Partly Cloudy
2:51 PM 77.0 °F 61.0 °F 58% 29.93 in 10.0 mi WNW 8.1 mph - N/A   Partly Cloudy
3:51 PM 78.1 °F 61.0 °F 56% 29.93 in 10.0 mi WNW 6.9 mph - N/A   Scattered Clouds
4:51 PM 75.0 °F 62.1 °F 64% 29.91 in 10.0 mi NW 6.9 mph - N/A   Scattered Clouds
5:51 PM 73.9 °F 62.1 °F 66% 29.90 in 10.0 mi WNW 6.9 mph - N/A   Scattered Clouds
6:51 PM 73.0 °F 62.1 °F 68% 29.90 in 10.0 mi NW 6.9 mph - N/A   Scattered Clouds
7:51 PM 71.1 °F 63.0 °F 75% 29.89 in 10.0 mi NW 6.9 mph - N/A   Scattered Clouds
8:51 PM 71.1 °F 63.0 °F 75% 29.91 in 10.0 mi Calm Calm - N/A   Scattered Clouds
9:51 PM 71.1 °F 63.0 °F 75% 29.91 in 10.0 mi NW 3.5 mph - N/A   Clear
10:51 PM 70.0 °F 64.0 °F 81% 29.91 in 10.0 mi WNW 4.6 mph - N/A   Partly Cloudy
11:51 PM 70.0 °F 64.0 °F 81% 29.91 in 10.0 mi Calm Calm - N/A   Partly Cloudy